Camp Point, IL

12:14 PM CST on February 27, 2017 (GMT -0600)
Quincy Regional-Baldwin

Weather History for KUIN - February, 2012

Change the Weather History Date:

Thursday, February 9, 2012

  Actual Average Record
Temperature  
Mean Temperature 26 °F 29 °F  
Max Temperature 33 °F 37 °F 67 °F (1943)
Min Temperature 19 °F 21 °F -16 °F (1979)
Degree Days  
Heating Degree Days 39 36  
Month to date heating degree days 331  
Since 1 July heating degree days 3717  
Cooling Degree Days 0 0  
Month to date cooling degree days 0  
Year to date cooling degree days 0  
Moisture  
Dew Point 20 °F    
Average Humidity 75    
Maximum Humidity 89    
Minimum Humidity 64    
Precipitation  
Precipitation 0.00 in 0.06 in 0.77 in (1959)
Month to date precipitation 0.50  
Year to date precipitation 2.02  
Sea Level Pressure  
Sea Level Pressure 30.28 in    
Wind  
Wind Speed 5 mph (SSW)    
Max Wind Speed 9 mph    
Max Gust Speed -    
Visibility 10 miles    
Events      
T = Trace of Precipitation, MM = Missing Value Source: NWS Daily Summary

Daily Weather History Graph

Daily Weather History Graph

Search for Another Location

Airport or City:

Trip Planner

Search our weather history database for the weather conditions in past years. The results will help you decide how hot, cold, wet, or windy it might be!

Date:

Astronomy

Feb. 09, 2012 Rise Set
Actual Time 7:05 AM CST 5:33 PM CST
Civil Twilight 6:37 AM CST 6:01 PM CST
Nautical Twilight 6:05 AM CST 6:33 PM CST
Astronomical Twilight 5:33 AM CST 7:04 PM CST
Moon 8:01 PM CST (2/9) 7:41 AM CST (2/9)
Length of Visible Light 11h 24m
Length of Day
10h 27m
Waning Gibbous, 96% of the Moon is Illuminated
Feb 9
Waning Gibbous
Feb 14
Last Quarter
Feb 21
New
Feb 29
First Quarter
Mar 8
Full

Hourly Weather History & Observations

Time (CST) Temp. Windchill Dew Point Humidity Pressure Visibility Wind Dir Wind Speed Gust Speed Precip Events Conditions
12:54 AM 23.0 °F 18.4 °F 19.0 °F 85% 30.40 in 10.0 mi NW 3.5 mph - N/A   Clear
1:54 AM 21.9 °F 17.2 °F 18.0 °F 85% 30.39 in 10.0 mi NW 3.5 mph - N/A   Clear
2:54 AM 21.0 °F 16.2 °F 18.0 °F 88% 30.38 in 9.0 mi West 3.5 mph - N/A   Clear
3:54 AM 19.9 °F 13.4 °F 17.1 °F 89% 30.36 in 8.0 mi West 4.6 mph - N/A   Clear
4:54 AM 19.0 °F 13.9 °F 15.1 °F 85% 30.37 in 10.0 mi WSW 3.5 mph - N/A   Clear
5:54 AM 19.0 °F 13.9 °F 12.9 °F 77% 30.37 in 10.0 mi West 3.5 mph - N/A   Clear
6:54 AM 19.0 °F 13.9 °F 12.9 °F 77% 30.36 in 10.0 mi West 3.5 mph - N/A   Clear
7:54 AM 19.9 °F - 15.1 °F 81% 30.35 in 10.0 mi Calm Calm - N/A   Partly Cloudy
8:54 AM 23.0 °F 15.8 °F 15.1 °F 72% 30.36 in 10.0 mi WSW 5.8 mph - N/A   Scattered Clouds
9:54 AM 25.0 °F 18.1 °F 17.1 °F 72% 30.37 in 10.0 mi WSW 5.8 mph - N/A   Overcast
10:54 AM 26.1 °F 20.5 °F 17.1 °F 69% 30.36 in 10.0 mi SW 4.6 mph - N/A   Overcast
11:54 AM 27.0 °F 21.6 °F 17.1 °F 66% 30.33 in 10.0 mi South 4.6 mph - N/A   Overcast
12:54 PM 28.0 °F 21.7 °F 19.0 °F 69% 30.29 in 10.0 mi South 5.8 mph - N/A   Overcast
1:13 PM 28.4 °F 21.2 °F 19.4 °F 69% 30.25 in 10.0 mi South 6.9 mph - N/A   Overcast
1:54 PM 30.0 °F 22.4 °F 19.0 °F 64% 30.25 in 10.0 mi South 8.1 mph - N/A   Overcast
2:25 PM 30.2 °F 21.9 °F 19.4 °F 64% 30.22 in 10.0 mi South 9.2 mph - N/A   Overcast
2:54 PM 30.9 °F 22.8 °F 21.0 °F 67% 30.24 in 10.0 mi SSW 9.2 mph - N/A   Overcast
3:54 PM 30.9 °F 23.5 °F 21.9 °F 69% 30.22 in 10.0 mi South 8.1 mph - N/A   Overcast
4:54 PM 32.0 °F 26.4 °F 23.0 °F 69% 30.21 in 10.0 mi South 5.8 mph - N/A   Overcast
5:54 PM 32.0 °F 26.4 °F 24.1 °F 73% 30.19 in 10.0 mi South 5.8 mph - N/A   Overcast
6:54 PM 32.0 °F 25.6 °F 25.0 °F 75% 30.18 in 10.0 mi SSE 6.9 mph - N/A   Overcast
7:54 PM 32.0 °F 27.5 °F 25.0 °F 75% 30.18 in 10.0 mi South 4.6 mph - N/A   Overcast
8:54 PM 32.0 °F 27.5 °F 25.0 °F 75% 30.18 in 10.0 mi South 4.6 mph - N/A   Overcast
9:54 PM 33.1 °F 27.7 °F 25.0 °F 72% 30.17 in 10.0 mi South 5.8 mph - N/A   Overcast
10:54 PM 33.1 °F 26.1 °F 26.1 °F 75% 30.14 in 10.0 mi South 8.1 mph - N/A   Overcast
11:54 PM 33.1 °F 26.9 °F 27.0 °F 78% 30.13 in 10.0 mi SSW 6.9 mph - N/A   Overcast